sat.trackr.live / text

‹ back to catalog

BRO-18

NORAD 64550 · 2025-135Y

PAYLOAD ACTIVE UNKNOWN

§ Identity

Operator
Country
FR
Launch date
2025-06-23
Launch site
AFWTR
Launch vehicle
Mass (kg)
RCS (m²)

External: N2YO · Heavens-Above · Gunter

§ Orbital elements

Epoch: 2026-09-21T22:38:00.765024Z

Period
94.57 min
Inclination
97.4706°
Eccentricity
0.0000575
Mean motion
15.22609078 rev/d
Perigee alt
497.6 km
Apogee alt
498.4 km
Semi-major
6,876.1 km
B*
1.2974e-4
RAAN
19.3024°
Arg perigee
113.4259°
Mean anomaly
246.7038°
Rev number
6,959

§ Raw data

BRO-181 64550U 25135Y   26264.94306441  .00002945  00000+0  12974-3 0  99922 64550  97.4706  19.3024 0000575 113.4259 246.7038 15.22609078 69595

JSON: /api/v1/satellites/64550 · /tle

For live sub-satellite position, see the globe view (requires WebGL).

§ Visibility from observer

Set your observer location to see the next 7 days of passes ≥ 10°. The values pass through the URL so the page stays shareable.

No JS? Fill the form by hand. The geolocation button needs JavaScript.

§ Radio — SatNOGS DB

ModeDescriptionDownlinkUplink
BPSK Mode S - Transmitter 2.261 GHz
FSK AX.100 Mode 5 Mode U - Transmitter 401.520 MHz
FSK AX.100 Mode 5 Mode U - FSK4k8 - TLM (inactive) 401.735 MHz
FSK AX.100 Mode 5 Mode U - FSK9k6 - TLM (inactive) 401.735 MHz

4 transmitters · refreshed weekly from db.satnogs.org